Benutzungsordnung PDF Drucken E-Mail

 

 

Die Benutzungsordnung für den Verkehrslandeplatz Uetersen/Heist wurde am 01.01./10.01.2006 neu gefasst und von der zuständigen Landesbehörde in Schleswig-Holstein genehmigt und in Kraft gesetzt. Die Benutzungsordnung regelt die Rechte und Pflichten zwischen den Benutzern und dem Halter des Verkehrslandeplatzes. Die öffentlichen Vorschriften für die Benutzung des Verkehrslandeplatzes bleiben unberührt.

Für Fahrzeuge gilt die Straßenbenutzungsordnung.

 

Sie können die Benutzungsordnung hier als PDF-Datei herunterladen.

 

 

(Zum Öffnen benötigen Sie den Adobe Acrobat Reader, den Sie kostenfrei unter http://get.adobe.com/de/reader/ herunterladen können)

 

Zufallsbild

Aktuelle Termine

Mo Di Mi Do Fr Sa So
1 2 3 4 5 6 7
8 9 10 11 12 13 14
15 16 17 18 19 20 21
22 23 24 25 26 27 28
29 30 31 1 2 3 4

Pilotenwetter

[source: ADDS]
METAR
EDDH 241520Z 28012KT 9999 FEW028 BKN070 15/09 Q1021 NOSIG =
TAF
TAF EDDH 241100Z 2412/2518 30015G25KT 9999 SCT030 BECMG 2415/2417 30011KT BECMG 2418/2420 29006KT PROB30 TEMPO 2502/2506 BKN008 BECMG 2506/2508 30013KT PROB30 TEMPO 2506/2507 BKN012 TEMPO 2511/2516 31015G25KT =